Regional Weather Roundup
Issued by NWS San Diego, CA

Home | Current Version | Previous Version | Text Only | Print | Product List | Glossary On
Versions: 1 2 3 4 5 6 7 8 9 10 11 12 13 14 15 16 17 18 19 20 21 22 23 24 25 26 27 28 29 30 31 32 33 34 35 36 37 38 39 40 41 42 43 44 45 46 47 48 49 50
000
ASUS46 KSGX 252211
RWRSGX

SAN DIEGO HOURLY WEATHER ROUNDUP
NATIONAL WEATHER SERVICE SAN DIEGO CA
300 PM PDT SAT APR 25 2015

NOTE: "FAIR" INDICATES FEW OR NO CLOUDS BELOW 12,000 FEET WITH NO
SIGNIFICANT WEATHER AND/OR OBSTRUCTIONS TO VISIBILITY.

CAZ042-043-060-061-PZZ750-775-252300-

GREATER SAN DIEGO AREA

CITY           SKY/WX    TMP DP  RH WIND       PRES   REMARKS
LINDBERGH FLD  PTSUNNY   66  48  52 W13       29.99F
POINT LOMA       N/A     64  51  62 NW15        N/A
CHULA VISTA      N/A     65  56  72 W14       29.93S
IMPERIAL BEACH PTSUNNY   67  54  63 W15       30.00F
BROWN FIELD    PTSUNNY   63  51  65 W15       29.98F
MIRAMAR MCAS   PTSUNNY   67  48  50 W14       29.97F
MONTGOMERY FLD CLOUDY    66  51  58 W13       29.97F

$$

NORTH SAN DIEGO COUNTY

CITY           SKY/WX    TMP DP  RH WIND       PRES   REMARKS
CAMP PENDLETON CLOUDY    63  51  65 SW9       29.96F
OCEANSIDE AP   CLOUDY    64  53  67 SW9       29.96F
VISTA            N/A     63  54  74 SW3       29.95F
CARLSBAD       CLOUDY    63  51  65 SW12      29.96F
FALLBROOK        N/A     65  55  70 W8        29.95F
SAN MARCOS       N/A     61  53  75 CALM      29.95F
POWAY            N/A     65  53  65 NW7       29.98F

$$

EAST SAN DIEGO COUNTY

CITY           SKY/WX    TMP DP  RH WIND       PRES   REMARKS
RAMONA         CLOUDY    61  48  62 W17       29.95F
SANTEE LAKES     N/A     66  53  63 SW9       29.96F
LA MESA          N/A     64  51  64 W10       29.92F
DESCANSO N       N/A     48  47  96 W3        29.86F
MT. LAGUNA OBS   N/A     37  37 100 W29       29.53F WCI  25
CAMPO            N/A     54  45  71 SW22G30   29.91F

$$

ORANGE COUNTY AND THE LOS ANGELES BASIN

CITY           SKY/WX    TMP DP  RH WIND       PRES   REMARKS
JOHN WAYNE AP  CLOUDY    63  52  67 W8G21     29.95F
LAKE FOREST FR   N/A     56  51  83 W1        29.87F
SANTA ANA        N/A     64  56  75 CALM      29.89F
HUNTINGTON BCH   N/A     62  58  88 W10       29.97F
LOS ALAMITOS   LGT RAIN  61  59  94 SW15      29.93F FOG
FULLERTON      LGT RAIN  62  56  80 SW9G16    29.93F
LONG BEACH     LGT RAIN  62  57  83 W12G20    29.94F
L.A. AP        LGT RAIN  60  58  92 W18       29.93F FOG
L.A. DOWNTOWN  CLOUDY    63  54  72 VRB5G17   29.92F

$$

THE INLAND EMPIRE

CITY           SKY/WX    TMP DP  RH WIND       PRES   REMARKS
CORONA         RAIN      57  54  90 W6        29.94F FOG
CHINO          LGT RAIN  58  54  86 SW7       29.94F FOG
ONTARIO        LGT RAIN  57  51  80 SW15      29.93F
SAN BERNARDINO CLOUDY    59  45  58 W16G25    29.93F
RIVERSIDE AP   LGT RAIN  60  50  69 SW15G22   29.93F
RIV CYN CREST    N/A     60  56  88 SW9         N/A
MARCH ARB      PTSUNNY   60  47  64 W16G25    29.93F
HORSETHIEF CYN   N/A     59  46  62 W3        29.92F
MENIFEE          N/A     60  50  70 W10       30.01F
HEMET EAST       N/A     58  46  64 SW7       29.95F
FRENCH VALLEY  CLOUDY    59  46  63 SW10G21   29.94F
TEMECULA         N/A     60  52  75 SW13      29.92F

$$

SAN BERNARDINO AND RIVERSIDE COUNTY MOUNTAINS

CITY           SKY/WX    TMP DP  RH WIND       PRES   REMARKS
BIG BEAR AP    CLOUDY    37  34  87 SW10G17   29.90F FOG     WCI  30
ANGELUS OAKS     N/A     38  35  91 CALM      29.85F

$$

SOUTHERN DESERT INCLUDING THE COACHELLA VALLEY

CITY           SKY/WX    TMP DP  RH WIND       PRES   REMARKS
PALM SPRINGS   CLOUDY    74  43  32 E16G23    29.79F
THOUSAND PALMS   N/A     71  47  41 NW14      29.81F
THERMAL        CLOUDY    73  44  35 W23G33    29.79F
BLYTHE         CLOUDY    74  44  34 SW24G33   29.77F
IMPERIAL AP    CLOUDY    70  45  40 W31G39    29.81F
EL CENTRO NAS  CLOUDY    72  44  36 SW31G40   29.87F
YUMA AZ        CLOUDY    74  45  35 W13       29.82F
MEXICALI       CLOUDY    72  41  33 W28       29.83  BLWGDUST

$$

UPPER DESERT

CITY           SKY/WX    TMP DP  RH WIND       PRES   REMARKS
VICTORVILLE AP PTSUNNY   64  37  36 W24G36    29.81F
HESPERIA         N/A     53  45  75 W8        29.99F
APPLE VALLEY     N/A     54  43  66 S24G47    29.90F
PALMDALE       LGT RAIN  55  50  83 SW12      29.89F
LANCASTER      PTSUNNY   56  47  71 SW17      29.88F
DAGGETT        PTSUNNY   68  40  35 SW37G48   29.75F
29 PALMS N     CLOUDY    65  42  43 SW30      29.84F
NEEDLES        CLOUDY    74  40  29 S13G24    29.72F

$$

REGIONAL REPORTS

CITY           SKY/WX    TMP DP  RH WIND       PRES   REMARKS
SANTA BARBARA  PTSUNNY   69  51  52 W20       29.91F
SANDBERG       LGT RAIN  51  45  79 N24G31    29.92S
MT. WILSON       N/A     41  43 100 SW5         N/A
LAS VEGAS NV   PTSUNNY   71  32  23 SW20G33   29.62F
PHOENIX AZ     PTSUNNY   80  42  25 W9G17     29.74F
TIJUANA        CLOUDY    64  50  59 W20       30.02F
ENSENADA NW      N/A     66  32  28 SW10      29.99F

$$

OFFSHORE ISLANDS

CITY           SKY/WX    TMP DP  RH WIND       PRES   REMARKS
CATALINA ARPT  LGT RAIN  55  53  93 W28G36    29.96F VSB 1/2
SAN NICOLAS IS CLOUDY   N/A N/A N/A W22G33    29.98F

$$

MARINE AND OFFSHORE BUOY REPORTS

STATION/POSITION SKY/WX   TEMP    WIND        PRES    SWELL
                          AIR SEA DIR/SP/G            HT/PER/DIR
                          (F)     (DEG/KT/KT) (MB)    (FT/S/D)
TANNER BANKS               61 61  280/ 17/ 19 1016.7F   5/300/16
S CLEMENTE BASIN           62 63  280/ 17/ 19 1015.9F   3/290/ 7
SAN NICOLAS IS.               60                N/A     5/310/15
SO. S. ROSA ISLA           59 60  300/ 17/ 23 1014.9F   7/14
W. S. BARBARA CH           56 55  320/ 16/ 17 1015.1F   5/300/15
S. MONICA BASIN            60 60  280/ 23/ 27 1013.7F   2/270/16
S PEDRO CHANNEL               62                N/A     2/210/12
DANA POINT                    64                N/A     2/210/14
OCEANSIDE OFFSHR              63                N/A     2/220/15
TORREY PINES OTR              63                N/A     2/220/15
LA JOLLA 1                 62 63  230/  7/  9 1015.9S
MISSION BAY BUOY              64                N/A     2/230/15
SAN DIEGO BAY                 67              1016.3F
POINT LOMA SOUTH              65                N/A     2/270/17

$$



USA.gov is the U.S. government's official web portal to all federal, state and local government web resources and services.